Location: Csohesd
(46.2500°N, 22.6167°E)
Time: 09:54:50
(UTC+00:00)

FENGYUN 1C DEB - Visible Passes

Search period start: 17 August 2022 00:00
Search period end: 27 August 2022 00:00
Orbit: 761 x 845 km, 99.0° (Epoch: 16 August)

Date Brightness Start Highest point End Pass type
(mag) Time Alt. Az. Time Alt. Az. Time Alt. Az.
17 Aug ? 01:44:15 10° SE 01:49:08 36° ENE 01:53:57 10° N visible
18 Aug ? 01:19:30 10° ESE 01:23:39 23° ENE 01:27:46 10° N visible
19 Aug ? 00:55:20 10° E 00:58:16 15° NE 01:01:11 10° NNE visible
19 Aug ? 02:31:47 10° SSE 02:37:13 86° ENE 02:42:33 10° NNW visible
20 Aug ? 02:06:19 10° SE 02:11:33 53° ENE 02:16:42 10° N visible
21 Aug ? 01:41:13 10° SE 01:45:58 33° ENE 01:50:40 10° N visible
22 Aug ? 01:16:32 10° ESE 01:20:30 22° ENE 01:24:24 10° NNE visible
22 Aug ? 02:54:25 10° S 02:59:45 63° WSW 03:05:00 10° NNW visible
23 Aug ? 00:52:30 10° E 00:55:06 14° NE 00:57:41 10° NNE visible
23 Aug ? 02:28:38 10° SSE 02:34:00 80° ENE 02:39:17 10° NNW visible
24 Aug ? 02:03:13 10° SE 02:08:21 49° ENE 02:13:24 10° N visible
25 Aug ? 01:38:09 10° SE 01:42:47 31° ENE 01:47:20 10° N visible
26 Aug ? 01:13:33 10° ESE 01:17:18 20° ENE 01:21:00 10° NNE visible
26 Aug ? 02:51:11 10° S 02:56:30 68° WSW 03:01:44 10° NNW visible
